Regional Weather Roundup
Issued by NWS

Home | Current Version | Previous Version | Graphics & Text | Print | Product List | Glossary On
Versions: 1 2 3 4 5 6 7 8 9 10 11 12 13 14 15 16 17 18 19 20 21 22 23 24 25 26 27 28 29 30 31 32 33 34 35 36 37 38 39 40 41 42 43 44 45 46 47 48 49 50
000
ASUS43 KOAX 011402
RWRNE

WEATHER ROUNDUP FOR NEBRASKA
NATIONAL WEATHER SERVICE OMAHA NE
800 AM CST SUN FEB 01 2015

NOTES: SATELLITE DATA IS BEING USED TO AUGMENT CLOUD COVER ABOVE
       12000 FEET.
       "FAIR" INDICATES FEW OR NO CLOUDS BELOW 12,000 FEET WITH NO
       SIGNIFICANT WEATHER AND/OR OBSTRUCTIONS TO VISIBILITY.

  * THESE STATIONS DO NOT REPORT WEATHER SUCH AS RAIN...SNOW OR FOG.

NEZ001>004-019>022-054>056-011500-
NEBRASKA PANHANDLE

CITY           SKY/WX    TMP DP  RH WIND       PRES   REMARKS
SCOTTSBLUFF    CLOUDY    17  11  77 N13       30.19R WCI   4
ALLIANCE       CLOUDY     6   0  76 N18       30.18R WCI -13
CHADRON        LGT SNOW   7   1  76 N10       30.29R WCI  -8
SIDNEY         MOCLDY    11   8  88 N13       30.13R WCI  -4
$$

NEZ057>060-069>072-079>082-011500-
SOUTHWEST NEBRASKA

CITY           SKY/WX    TMP DP  RH WIND       PRES   REMARKS
NORTH PLATTE   CLOUDY     9   2  73 N21G30    30.17R WCI -11
IMPERIAL       CLOUDY    12   5  73 N26       30.17R WCI  -8
MCCOOK         CLOUDY    13   6  74 N28G33    30.14R WCI  -8
$$

NEZ005>010-023>029-035>040-094-011500-
NORTH CENTRAL NEBRASKA

CITY           SKY/WX    TMP DP  RH WIND       PRES   REMARKS
VALENTINE      LGT SNOW   2  -3  80 N23G33    30.26R WCI -21
BROKEN BOW     CLOUDY     7   2  80 N30G38    30.13R BLWGSNOWWCI -16
ORD            LGT SNOW   6   1  80 N24G38    30.14R VSB 3/4 WCI -16
$$

NEZ041-046>049-061>064-073>077-083>087-011500-
SOUTH CENTRAL NEBRASKA

CITY           SKY/WX    TMP DP  RH WIND       PRES   REMARKS
GRAND ISLAND   BLWGSNOW   9   5  84 N28G41    30.09R VSB 3/4 WCI -13
AURORA         LGT SNOW  10   8  89 N30G39    30.05R VSB 3/4 WCI -12
HASTINGS       FOG       10   6  84 N35G47    30.06R VSB 1/2 WCI -13
KEARNEY *      CLOUDY     9   3  78 N26G38    30.10R VSB 1/2 WCI -13
$$

NEZ011>018-030>034-042>045-011500-
NORTHEAST NEBRASKA

CITY           SKY/WX    TMP DP  RH WIND       PRES   REMARKS
NORFOLK        HAZE      11   6  81 N28G36    30.08R VSB 3/4 WCI -10
TEKAMAH        SNOW      21  18  88 N32       29.97R VSB 1/2 WCI   2
$$

NEZ050>053-065>068-078-088>093-011500-
SOUTHEAST NEBRASKA

CITY           SKY/WX    TMP DP  RH WIND       PRES   REMARKS
LINCOLN        LGT SNOW  22  18  85 N32G44    29.95R VSB 3/4 WCI   3
OMAHA EPPLEY   SNOW      23  21  92 N26G33    29.90R VSB 1/2 WCI   6
FALLS CITY     LGT SNOW  32  31  96 NW10      29.78R FOG     WCI  24
$$

NEZ044-045-051>053-067-011500-
OMAHA AREA

CITY           SKY/WX    TMP DP  RH WIND       PRES   REMARKS
OMAHA EPPLEY   SNOW      23  21  92 N26G33    29.90R VSB 1/2 WCI   6
OFFUTT AFB     LGT SNOW  25  21  86 N15G24    29.88R FOG     WCI  12
$$



USA.gov is the U.S. government's official web portal to all federal, state and local government web resources and services.